TimeMST,TemperatureF,Dew PointF,Humidity,Sea Level PressureIn,VisibilityMPH,Wind Direction,Wind SpeedMPH,Gust SpeedMPH,PrecipitationIn,Events,Conditions,WindDirDegrees,DateUTC
12:53 AM,62.1,32.0,32,29.90,10.0,WSW,5.8,-,N/A,,Clear,250,2013-05-21 07:53:00
1:53 AM,61.0,32.0,34,29.89,10.0,West,3.5,-,N/A,,Clear,270,2013-05-21 08:53:00
2:53 AM,57.0,33.1,40,29.90,10.0,Calm,Calm,-,N/A,,Clear,0,2013-05-21 09:53:00
3:53 AM,55.9,33.1,42,29.91,10.0,Calm,Calm,-,N/A,,Clear,0,2013-05-21 10:53:00
4:53 AM,55.0,32.0,42,29.91,10.0,Calm,Calm,-,N/A,,Clear,0,2013-05-21 11:53:00
5:53 AM,57.0,32.0,39,29.92,10.0,Calm,Calm,-,N/A,,Clear,0,2013-05-21 12:53:00
6:53 AM,60.1,33.1,36,29.91,10.0,Calm,Calm,-,N/A,,Clear,0,2013-05-21 13:53:00
7:53 AM,64.0,33.1,31,29.91,10.0,Calm,Calm,-,N/A,,Clear,0,2013-05-21 14:53:00
8:53 AM,66.0,32.0,28,29.91,10.0,NNW,5.8,-,N/A,,Clear,340,2013-05-21 15:53:00
9:53 AM,69.1,33.1,26,29.90,10.0,Calm,Calm,-,N/A,,Clear,0,2013-05-21 16:53:00
10:53 AM,73.0,33.1,23,29.87,10.0,Variable,4.6,-,N/A,,Clear,0,2013-05-21 17:53:00
11:53 AM,73.9,33.1,22,29.85,10.0,Variable,4.6,-,N/A,,Clear,0,2013-05-21 18:53:00
12:53 PM,78.1,28.0,16,29.81,10.0,Variable,3.5,-,N/A,,Clear,0,2013-05-21 19:53:00
1:53 PM,80.1,21.0,11,29.78,10.0,North,9.2,-,N/A,,Clear,350,2013-05-21 20:53:00
2:53 PM,79.0,19.9,11,29.77,10.0,Variable,3.5,-,N/A,,Clear,0,2013-05-21 21:53:00
3:53 PM,79.0,19.9,11,29.73,10.0,NE,5.8,-,N/A,,Clear,50,2013-05-21 22:53:00
4:53 PM,82.9,21.0,10,29.70,10.0,Variable,3.5,-,N/A,,Clear,0,2013-05-21 23:53:00
5:53 PM,81.0,21.9,11,29.67,10.0,NE,8.1,-,N/A,,Clear,50,2013-05-22 00:53:00
6:53 PM,80.1,23.0,12,29.66,10.0,ENE,4.6,-,N/A,,Clear,70,2013-05-22 01:53:00
7:53 PM,75.0,24.1,15,29.65,10.0,SSE,4.6,-,N/A,,Clear,160,2013-05-22 02:53:00
8:53 PM,75.0,21.9,14,29.66,10.0,West,3.5,-,N/A,,Clear,260,2013-05-22 03:53:00
9:53 PM,73.0,21.9,15,29.68,10.0,West,3.5,-,N/A,,Clear,260,2013-05-22 04:53:00
10:53 PM,73.9,18.0,12,29.65,10.0,Variable,5.8,-,N/A,,Clear,0,2013-05-22 05:53:00
11:53 PM,70.0,18.0,14,29.66,10.0,SSW,6.9,-,N/A,,Clear,200,2013-05-22 06:53:00